TimeEDT,TemperatureF,Dew PointF,Humidity,Sea Level PressureIn,VisibilityMPH,Wind Direction,Wind SpeedMPH,Gust SpeedMPH,PrecipitationIn,Events,Conditions,WindDirDegrees,DateUTC
12:53 AM,55.9,54.0,93,30.06,8.0,Calm,Calm,-,N/A,,Clear,0,2013-09-27 04:53:00
1:53 AM,54.0,53.1,97,30.06,7.0,Calm,Calm,-,N/A,,Clear,0,2013-09-27 05:53:00
2:53 AM,54.0,53.1,97,30.07,9.0,Calm,Calm,-,N/A,,Clear,0,2013-09-27 06:53:00
3:53 AM,52.0,51.1,97,30.06,8.0,Calm,Calm,-,N/A,,Clear,0,2013-09-27 07:53:00
4:53 AM,52.0,50.0,93,30.08,8.0,Calm,Calm,-,N/A,,Clear,0,2013-09-27 08:53:00
5:34 AM,51.8,51.8,100,30.10,5.0,Calm,Calm,-,N/A,,Scattered Clouds,0,2013-09-27 09:34:00
5:42 AM,51.8,50.0,94,30.10,4.0,Calm,Calm,-,N/A,,Mostly Cloudy,0,2013-09-27 09:42:00
5:53 AM,52.0,51.1,97,30.09,4.0,Calm,Calm,-,N/A,,Mostly Cloudy,0,2013-09-27 09:53:00
6:32 AM,51.8,50.0,94,30.11,7.0,Calm,Calm,-,N/A,,Scattered Clouds,0,2013-09-27 10:32:00
6:53 AM,51.1,50.0,96,30.11,4.0,Calm,Calm,-,N/A,,Partly Cloudy,0,2013-09-27 10:53:00
7:28 AM,50.0,48.2,94,30.14,1.8,Calm,Calm,-,N/A,,Clear,0,2013-09-27 11:28:00
7:39 AM,51.8,50.0,94,30.14,3.0,Calm,Calm,-,N/A,,Clear,0,2013-09-27 11:39:00
7:53 AM,50.0,48.9,96,30.14,5.0,Calm,Calm,-,N/A,,Clear,0,2013-09-27 11:53:00
8:39 AM,55.4,53.6,94,30.16,1.8,Calm,Calm,-,N/A,,Clear,0,2013-09-27 12:39:00
8:43 AM,55.4,53.6,94,30.16,0.8,Calm,Calm,-,N/A,,Mist,0,2013-09-27 12:43:00
8:53 AM,55.9,55.0,97,30.16,0.8,Calm,Calm,-,N/A,,Mist,0,2013-09-27 12:53:00
8:58 AM,55.4,55.4,100,30.16,1.2,Calm,Calm,-,N/A,,Partly Cloudy,0,2013-09-27 12:58:00
9:10 AM,57.2,57.2,100,30.16,3.0,East,3.5,-,N/A,,Partly Cloudy,80,2013-09-27 13:10:00
9:53 AM,64.0,57.9,80,30.17,8.0,Calm,Calm,-,N/A,,Clear,0,2013-09-27 13:53:00
10:53 AM,71.1,59.0,66,30.17,10.0,East,3.5,-,N/A,,Clear,80,2013-09-27 14:53:00
11:53 AM,75.0,59.0,57,30.16,10.0,Calm,Calm,-,N/A,,Clear,0,2013-09-27 15:53:00
12:53 PM,79.0,53.1,40,30.15,10.0,ENE,5.8,-,N/A,,Clear,60,2013-09-27 16:53:00
1:53 PM,80.1,51.1,36,30.14,10.0,East,6.9,-,N/A,,Clear,90,2013-09-27 17:53:00
2:53 PM,80.1,53.1,39,30.11,10.0,Calm,Calm,-,N/A,,Clear,0,2013-09-27 18:53:00
3:53 PM,80.1,51.1,36,30.10,10.0,Variable,4.6,-,N/A,,Clear,0,2013-09-27 19:53:00
4:53 PM,81.0,48.9,33,30.09,10.0,Variable,5.8,-,N/A,,Clear,0,2013-09-27 20:53:00
5:53 PM,79.0,48.9,35,30.09,10.0,ENE,5.8,-,N/A,,Clear,60,2013-09-27 21:53:00
6:53 PM,73.9,51.1,45,30.09,10.0,ESE,3.5,-,N/A,,Clear,110,2013-09-27 22:53:00
7:53 PM,66.0,53.1,63,30.10,10.0,Calm,Calm,-,N/A,,Clear,0,2013-09-27 23:53:00
8:53 PM,60.1,54.0,80,30.11,10.0,Calm,Calm,-,N/A,,Clear,0,2013-09-28 00:53:00
9:53 PM,59.0,54.0,83,30.11,10.0,Calm,Calm,-,N/A,,Clear,0,2013-09-28 01:53:00
10:53 PM,57.0,53.1,87,30.12,10.0,Calm,Calm,-,N/A,,Clear,0,2013-09-28 02:53:00
11:53 PM,55.9,53.1,90,30.12,10.0,Calm,Calm,-,N/A,,Clear,0,2013-09-28 03:53:00